Flag for Germany Weather past 2 weeks in Landsberg am Lech, Bavaria, Germany

Now
66 °F

Thunderstorms. Partly sunny.


Feels Like: 66 °F
Forecast: 56 / 72 °F
Wind: 6 mph from Northeast

Location: Landsberg

Current Time: Jul 22, 2014 at 7:34:41 PM

Latest Report: Jul 22, 2014 at 6:20 PM


Visibility: 3 mi

Pressure: 29.98 "Hg

Humidity: 94%

Dew point: 64 °F

Location of Landsberg am LechLocation

Historic Weather in Landsberg am Lech — Graph

°F

Landsberg am Lech temperature yesterday

Maximum temperature yesterday: 66 °F (at 12:20 AM)
Minimum temperature yesterday: 59 °F (at 5:20 PM)
Average temperature yesterday: 61 °F

Past Weeks' High & Low Weather Summary

 TemperatureHumidityPressure
High88 °F (Jul 19, 4:20 PM)100% (Jul 8, 12:20 PM)30.24 "Hg (Jul 8, 12:20 PM)
Low50 °F (Jul 9, 9:20 PM)27% (Jul 19, 5:20 PM)29.80 "Hg (Jul 8, 9:20 AM)
Average64 °F75%29.99 "Hg
* Reported Jul 7 6:20 PM — Jul 22 6:20 PM, Landsberg am Lech, Weather by CustomWeather, © 2014

Note: Actual official high and low records may vary slightly from our data, if they occured in-between our weather recording intervals... More about our weather records

Advertising

Landsberg am Lech weather history for previous 24 hours

 ConditionsComfort  
Time TempWeatherWind HumidityBarometerVisibility
6:20 PM
Jul 22
66 °FThunderstorms. Partly sunny.6 mph94%29.98 "Hg3 mi
6:01 PM66 °FThunderstorms. Partly sunny.8 mph94%29.98 "Hg4 mi
5:20 PM68 °FScattered showers. Partly sunny.7 mph88%29.95 "Hg6 mi
4:20 PM66 °FScattered showers. Partly sunny.8 mph94%29.95 "Hg5 mi
3:20 PM66 °FSprinkles. Partly sunny.6 mph88%29.95 "HgN/A
2:20 PM64 °FRain showers. Partly sunny.5 mph94%29.95 "HgN/A
1:20 PM64 °FMostly cloudy.3 mph88%29.95 "HgN/A
12:20 PM64 °FMostly cloudy.1 mph88%29.95 "HgN/A
11:20 AM63 °FLow clouds.5 mph94%29.92 "HgN/A
10:20 AM61 °FDrizzle. Fog.6 mph94%29.92 "Hg2 mi
9:20 AM61 °FLight rain. Partly sunny.6 mph94%29.89 "HgN/A
8:20 AM61 °FLight rain. Low clouds.7 mph94%29.89 "Hg4 mi
7:20 AM59 °FLow clouds.5 mph100%29.89 "HgN/A
6:20 AM59 °FLight rain. Fog.5 mph100%29.86 "Hg2 mi
5:20 AM59 °FRain. Passing clouds.6 mph100%29.86 "Hg4 mi
3:20 AM59 °FLight rain. Passing clouds.6 mph100%29.86 "Hg5 mi
2:20 AM59 °FRain. Fog.8 mph100%29.86 "Hg3 mi
1:20 AM59 °FRain. Passing clouds.12 mph100%29.89 "Hg4 mi
12:20 AM59 °FRain. Passing clouds.13 mph94%29.89 "Hg4 mi
11:20 PM
Jul 21
59 °FLight rain. Partly cloudy.9 mph94%29.92 "Hg5 mi
10:20 PM59 °FLight rain. Mostly cloudy.10 mph94%29.92 "Hg5 mi
9:20 PM59 °FLight rain. Mostly cloudy.7 mph94%29.95 "Hg5 mi
8:20 PM59 °FLight rain. Mostly cloudy.9 mph94%29.92 "Hg5 mi
7:20 PM61 °FLight rain. Mostly cloudy.9 mph88%29.92 "HgN/A
Weather by CustomWeather, © 2014

See weather overviewHow to use our weather pages